Theta_e
356 355 353 353 352 353 354 353 352 352 352 351 352 353 352 353 362 374 378 370 358 351 351 352 352 350 349 350 350 350 351 350 350 349 349 349 347 347 346 345 346 345 344 343 342 341 343 345 344 341 343 345 346 347 349 350 349 346 344 346 348 351 352 350 349 347 335 324 328 337 342 343 344 342
357 356 353 353 354 354 354 354 353 352 353 355 354 354 354 353 356 363 371 371 360 353 354 354 353 351 350 351 350 350 351 350 349 349 349 349 347 346 345 346 346 346 345 343 341 341 343 343 343 342 343 344 346 347 349 350 350 348 346 345 346 347 349 349 349 350 343 329 324 332 339 342 344 344
356 356 354 354 354 354 354 355 355 352 352 356 356 355 354 355 357 356 361 367 361 355 357 355 353 354 353 352 351 351 351 349 348 348 348 347 347 346 346 346 346 346 346 345 343 343 344 344 345 344 344 345 345 346 348 349 350 350 348 346 345 345 346 348 349 349 348 338 325 325 333 338 341 344
358 356 355 355 355 355 355 355 356 354 353 356 356 356 355 355 358 357 359 363 361 356 356 356 355 356 356 354 354 352 350 349 348 348 348 346 347 347 346 346 346 346 347 346 345 346 345 346 347 346 346 346 346 346 347 348 350 351 350 347 345 344 345 347 349 348 349 345 333 324 326 333 337 341
358 357 357 357 357 357 356 355 356 356 355 355 355 355 356 355 356 358 359 361 361 358 355 356 356 356 355 354 352 350 349 348 348 348 347 346 347 347 346 346 347 347 346 346 347 347 346 348 350 349 348 349 349 348 347 348 349 350 351 349 345 345 345 346 349 349 349 349 342 329 323 327 332 336
359 359 358 359 358 357 356 355 355 355 354 353 352 353 355 356 356 358 358 358 359 359 356 356 357 355 355 353 350 350 350 349 350 349 346 345 346 346 346 347 348 347 346 346 347 347 348 349 351 352 352 352 353 353 351 349 349 350 351 349 346 345 345 346 348 349 348 349 348 338 325 323 328 332
358 358 357 358 358 357 357 357 356 356 354 352 352 352 354 356 357 357 358 357 358 359 357 356 355 354 354 353 350 350 350 349 349 348 346 345 346 345 345 346 348 348 348 347 348 349 350 352 353 353 353 353 354 355 354 352 350 349 351 351 348 346 346 346 347 348 349 349 349 346 334 323 324 330
358 357 357 356 357 357 357 357 356 356 355 354 354 354 353 354 355 356 357 357 357 358 358 355 354 354 354 353 352 351 350 348 347 346 347 347 346 347 348 349 350 350 350 350 350 351 353 355 354 353 353 355 355 355 355 354 352 350 351 352 350 348 346 346 346 347 348 348 349 348 343 330 322 326
358 358 358 357 357 358 357 357 357 356 356 355 354 354 353 354 354 355 356 356 356 357 356 355 354 354 354 354 352 350 349 349 348 349 350 350 350 351 351 351 351 353 353 352 352 354 356 355 353 353 355 356 356 355 355 355 354 352 351 352 351 350 347 346 346 346 347 348 348 348 348 341 328 323
357 357 358 358 356 356 355 355 356 356 355 355 353 352 354 355 355 355 355 356 356 356 356 356 356 354 354 353 351 349 350 351 352 353 353 351 350 351 351 350 351 353 354 354 354 356 355 353 352 355 357 356 355 355 355 355 354 352 351 352 351 351 350 347 346 346 346 347 348 348 348 347 339 328
358 357 356 355 354 354 354 354 355 355 354 354 354 354 356 356 356 357 357 356 356 356 356 356 355 354 353 352 351 352 352 352 354 355 355 353 352 352 352 352 352 353 354 355 355 355 352 352 354 355 355 354 354 354 353 354 354 352 351 352 351 351 352 350 347 346 346 346 347 348 348 348 346 340
355 354 353 353 352 351 352 353 354 353 352 354 356 356 356 356 355 355 355 355 355 354 354 355 355 356 355 353 353 354 355 356 357 356 356 356 355 353 353 351 352 354 355 356 355 353 353 354 355 354 353 354 354 353 352 353 353 352 351 351 352 352 352 353 351 348 347 346 346 346 348 348 348 346
352 351 352 351 350 350 352 353 353 353 353 354 356 356 355 354 353 351 351 353 353 354 356 356 357 357 355 354 355 357 358 359 358 356 355 356 356 354 353 351 351 353 355 356 354 353 354 355 354 353 354 355 355 354 353 352 352 352 351 351 351 352 353 353 352 350 348 347 347 346 346 347 348 348
354 353 353 352 351 351 352 352 352 354 356 355 354 354 353 351 349 348 348 348 349 352 355 354 354 356 355 354 356 358 358 359 358 357 356 356 355 355 355 353 350 351 354 355 355 355 355 355 355 354 355 356 356 356 355 355 354 353 352 353 352 352 354 354 353 351 350 349 348 346 346 346 347 347
354 353 354 353 352 351 349 349 350 352 354 355 352 352 352 350 349 349 349 350 350 351 351 350 351 354 353 352 355 357 358 359 359 358 357 356 355 355 355 354 353 353 355 356 357 356 355 355 356 356 357 357 357 357 357 356 355 355 354 354 353 352 354 355 354 353 354 352 350 348 347 346 346 347
353 351 351 351 351 351 349 349 350 350 352 353 352 352 353 354 356 356 356 357 356 356 355 355 354 353 353 354 355 356 358 358 357 356 355 354 354 354 355 355 355 355 356 357 357 356 355 356 357 357 357 357 355 355 355 356 356 356 356 355 354 353 354 355 355 355 355 355 353 351 349 347 346 346
352 351 351 350 350 350 349 349 351 353 356 356 354 354 356 357 359 359 358 358 358 358 357 356 355 354 355 356 355 356 358 356 351 349 350 351 352 354 354 355 355 356 357 358 357 356 357 357 357 357 356 355 355 354 354 356 357 356 356 356 355 354 354 355 355 355 355 356 356 355 352 350 348 346
353 352 351 351 350 350 350 350 352 355 359 360 358 357 358 357 357 357 357 357 357 356 354 354 355 354 354 354 354 354 352 347 342 342 345 349 351 353 354 355 356 357 358 357 357 357 357 356 356 356 355 354 354 354 353 356 358 357 357 358 357 356 355 355 356 356 355 355 355 356 355 354 352 349
353 352 352 352 352 351 350 351 353 356 358 359 359 358 357 356 356 357 358 357 357 356 355 354 353 350 348 345 342 340 338 336 336 339 344 347 350 353 355 356 357 357 356 356 358 357 355 355 355 354 354 353 353 354 355 357 357 357 358 357 357 357 357 356 356 356 356 356 356 356 356 356 356 354
352 353 352 353 353 352 352 353 354 356 357 358 358 357 356 355 355 357 357 355 354 354 353 349 344 342 340 335 331 331 332 333 336 339 341 344 349 355 357 357 357 356 354 356 357 355 354 355 354 353 353 353 354 355 356 356 356 356 356 356 356 358 359 358 358 357 357 356 356 356 355 356 356 356
353 353 353 354 354 354 354 354 354 355 356 355 355 355 354 353 353 354 353 351 348 346 343 338 335 335 334 333 333 334 334 336 338 338 338 340 348 356 357 358 358 356 354 356 356 354 354 353 352 353 353 353 355 356 355 355 354 354 355 357 358 357 357 358 358 358 358 358 357 356 356 356 355 355
352 352 353 354 354 355 355 354 354 353 352 352 352 352 351 350 349 348 347 346 343 340 337 334 333 334 336 338 338 336 337 344 347 346 345 347 351 355 356 355 356 354 353 354 354 353 353 351 350 351 353 353 354 354 354 353 351 353 357 357 355 354 354 356 357 357 357 357 357 358 357 356 356 355
352 351 351 351 352 352 352 351 350 349 348 347 345 341 339 341 343 342 340 338 337 337 337 334 331 335 340 343 340 337 342 351 353 351 351 349 348 349 349 349 350 351 353 353 351 350 351 350 348 349 353 355 355 353 354 352 350 354 356 351 350 354 356 356 355 354 355 356 357 358 358 358 357 357
352 352 351 351 350 350 349 347 346 343 340 336 331 328 328 331 335 336 334 333 336 337 334 331 332 339 344 343 339 340 346 351 351 348 347 343 341 346 348 348 348 350 351 349 345 343 345 346 346 347 351 355 356 355 354 351 350 352 350 345 347 351 350 348 349 351 354 356 356 357 358 358 358 358
349 350 351 350 349 348 347 344 339 334 330 327 326 328 331 332 334 334 334 336 336 331 327 330 338 344 344 340 338 343 347 347 346 345 342 340 342 347 348 346 345 345 344 341 338 338 341 343 344 346 350 354 355 354 353 350 350 350 346 343 344 342 339 340 343 347 351 354 355 356 357 358 358 358
345 347 349 347 345 344 342 338 333 328 328 328 329 332 334 335 335 335 334 332 327 322 327 338 345 344 340 338 341 344 344 343 342 340 339 341 345 346 345 343 341 340 337 335 337 340 342 343 345 347 350 352 352 351 351 351 350 348 345 344 341 337 336 338 341 345 350 353 354 355 356 356 357 358
337 339 340 339 338 336 335 333 331 331 332 333 333 334 334 331 329 327 324 322 320 325 336 344 345 342 338 340 342 342 340 340 339 338 341 344 345 344 343 341 338 335 333 336 339 341 341 341 341 341 343 344 346 348 349 349 348 345 342 340 337 336 336 336 339 342 347 350 354 356 356 357 358 359
331 332 333 333 331 329 329 329 330 331 330 329 327 325 322 319 318 317 318 320 325 333 340 342 342 340 339 341 342 340 339 339 338 338 341 343 341 340 338 337 335 334 334 336 337 337 337 337 334 334 335 336 340 345 347 345 343 341 339 338 336 335 333 334 336 340 344 348 352 354 355 355 354 354
327 326 325 323 320 317 315 316 316 316 316 315 314 315 316 317 319 321 326 330 334 337 339 339 340 339 339 341 342 340 339 338 336 337 340 340 338 337 335 333 333 334 334 334 335 335 334 333 332 332 333 333 335 340 341 341 340 337 336 337 337 333 331 334 338 341 340 340 341 342 343 342 339 337
317 318 315 310 307 308 310 311 311 312 315 317 320 323 326 327 329 330 332 334 336 337 338 338 339 340 341 341 340 338 338 337 335 337 339 337 335 334 332 331 331 331 332 333 333 332 332 332 332 332 332 331 332 333 333 334 335 332 330 333 335 335 335 337 338 337 335 331 330 331 333 333 330 327
310 313 310 304 307 316 323 325 324 325 328 329 329 330 332 333 335 335 334 334 335 336 337 338 339 340 340 337 336 336 336 334 334 337 337 335 333 332 331 330 330 330 332 332 331 331 331 331 331 330 329 328 327 327 327 328 329 328 328 331 333 335 335 334 332 329 326 324 323 325 327 328 328 325
306 305 306 311 319 325 327 328 328 330 331 333 333 333 333 334 335 336 336 336 336 336 337 337 337 336 335 333 333 334 334 333 335 336 335 332 331 331 330 329 330 331 331 330 330 330 330 330 329 328 326 325 325 326 328 328 329 329 329 329 330 330 329 328 326 323 323 323 324 325 325 326 327 327
305 305 313 323 326 324 323 325 327 328 328 330 332 331 330 332 334 334 333 334 334 333 334 334 334 333 332 332 332 333 333 333 333 333 332 330 329 329 329 330 331 331 331 330 330 330 329 328 327 326 325 326 328 329 330 330 330 329 327 326 326 326 325 323 322 322 324 326 327 327 327 328 330 331
306 312 321 326 324 323 324 325 327 327 327 328 328 328 329 330 331 330 331 332 332 332 333 333 333 333 332 333 333 333 332 331 330 330 329 328 328 329 328 328 329 330 330 330 330 328 326 326 325 325 327 328 329 330 330 330 328 326 325 324 324 323 322 321 322 324 326 327 327 328 329 330 332 333
311 318 324 324 323 324 326 326 326 327 327 327 327 328 329 329 329 329 330 330 330 331 331 332 332 332 331 330 330 330 329 328 328 328 327 327 327 327 327 327 328 328 328 328 327 326 325 325 325 327 328 327 326 326 327 327 325 324 323 323 323 323 323 323 323 325 326 327 328 329 330 331 332 332
316 321 324 324 325 326 326 326 327 327 327 328 328 328 329 328 328 328 328 328 328 328 328 328 328 328 327 326 326 326 326 327 327 326 326 326 327 326 327 327 327 327 327 327 326 326 325 325 327 327 326 325 324 324 324 324 323 323 323 323 323 323 323 324 324 325 327 327 328 329 331 331 330 329
320 324 326 327 327 327 326 326 327 327 327 327 327 327 327 327 327 327 326 326 326 325 325 325 325 326 326 326 326 326 326 326 326 326 326 325 325 325 325 325 324 325 325 325 325 325 325 324 324 324 323 322 322 322 322 322 321 322 322 322 322 322 323 324 325 326 326 326 326 327 327 327 325 324
322 325 326 326 326 325 325 325 324 324 324 324 324 324 325 325 325 324 324 324 324 324 324 325 325 325 325 325 325 324 324 324 324 324 323 322 322 321 321 321 321 322 322 322 323 322 322 322 322 322 321 321 321 321 321 320 320 320 321 321 322 323 324 324 324 324 324 323 324 323 323 322 322 321
324 325 324 323 323 323 322 322 322 321 321 321 321 322 322 322 322 322 322 322 322 323 322 322 322 322 322 321 321 321 321 321 322 321 320 319 319 319 319 319 319 320 320 320 320 320 320 320 320 320 319 319 319 319 319 319 320 320 320 321 322 322 322 321 321 321 321 320 320 320 320 320 321 321
323 322 321 321 321 320 320 320 320 319 319 319 319 319 320 320 320 320 320 319 320 320 319 319 319 318 318 318 319 319 319 319 319 318 318 317 318 318 318 318 318 318 319 319 319 319 319 319 319 318 318 318 318 318 318 319 319 319 319 319 319 319 319 319 319 318 318 318 319 320 320 320 320 320
320 319 319 319 319 319 318 318 318 317 317 317 317 317 318 318 317 317 316 316 316 317 316 316 316 315 315 315 315 315 315 315 314 314 315 315 315 315 315 316 316 316 317 317 317 317 317 317 317 317 317 317 317 317 317 317 317 317 317 317 317 317 317 317 316 316 317 317 318 319 319 318 318 318
318 317 317 317 316 316 316 316 316 316 315 315 315 315 315 315 315 314 314 313 314 313 313 313 313 312 312 312 312 311 311 311 310 310 310 310 310 310 311 312 312 312 313 313 314 314 314 313 314 314 314 314 314 315 316 316 316 316 316 316 315 316 316 315 315 315 316 316 316 316 316 316 316 317
316 315 315 315 314 314 314 314 314 313 313 313 313 313 313 312 312 312 311 311 311 310 310 309 309 309 309 308 308 308 308 308 308 308 307 307 307 307 307 308 308 308 309 309 309 310 310 310 311 311 311 312 312 313 314 315 315 315 315 315 315 315 314 314 315 315 315 315 314 315 315 316 316 317
313 313 313 313 313 312 312 312 312 311 311 311 311 310 310 310 310 310 309 309 309 308 307 307 307 306 306 306 305 305 306 306 306 305 305 305 306 306 306 306 306 306 306 307 307 307 307 308 308 309 309 310 311 312 313 313 313 313 313 313 313 313 313 313 313 313 313 314 314 314 315 315 316 317
312 311 311 311 311 310 310 310 310 310 309 309 309 309 309 308 309 308 308 307 306 306 305 305 305 304 304 304 303 304 304 304 304 304 304 304 304 305 305 305 304 305 305 305 305 305 304 304 305 306 307 308 309 310 311 311 312 312 312 311 311 312 311 312 312 312 313 314 314 315 315 316 316 316
Wind_Speed
5 6 5 5 6 5 3 3 3 3 4 5 4 5 5 4 2 1 2 3 4 7 11 10 10 12 13 14 15 15 15 14 14 17 16 12 16 19 19 22 24 24 26 27 24 19 16 16 16 17 17 17 17 18 19 20 19 17 13 10 8 6 6 6 4 4 5 4 3 8 11 11 9 9
6 6 6 6 6 6 4 5 6 4 5 5 5 6 6 6 5 4 3 3 4 7 11 12 12 14 15 16 16 15 15 15 14 15 15 15 19 19 20 23 23 22 24 24 21 18 15 15 16 18 18 18 18 17 18 19 19 17 15 11 8 6 5 5 4 3 4 4 2 6 10 12 12 11
6 7 6 6 5 5 5 6 7 7 7 8 8 7 6 7 8 7 4 2 5 9 13 15 14 14 16 16 16 15 14 14 14 14 16 18 19 18 21 22 21 21 22 22 23 21 17 17 19 19 20 19 18 17 17 18 18 17 16 12 9 7 5 5 4 2 2 3 2 3 7 11 13 13
8 8 7 6 5 6 7 6 7 8 9 9 9 8 8 7 9 10 7 6 9 13 13 14 14 14 15 16 16 16 14 13 13 15 17 18 18 18 20 19 17 20 22 22 22 21 18 20 23 24 23 21 19 18 18 18 17 17 16 13 10 7 5 5 5 2 1 2 2 0 4 8 11 13
8 8 7 6 7 8 8 7 7 8 9 9 9 9 10 10 10 10 10 10 11 14 13 12 13 14 15 16 15 15 14 12 13 15 17 18 18 18 19 18 16 18 21 21 21 21 21 24 27 26 22 19 18 19 18 18 17 16 16 14 10 8 6 5 5 4 1 1 1 2 1 4 9 13
8 8 7 7 8 9 8 9 9 8 8 8 8 8 11 12 11 10 12 12 11 13 15 14 14 15 16 16 15 15 15 15 15 16 18 19 18 18 20 20 17 16 18 20 21 22 24 25 24 22 20 20 20 20 19 18 16 14 15 14 11 8 7 5 4 5 4 1 1 1 1 1 5 11
9 9 9 9 9 8 8 9 9 8 8 8 7 9 10 11 11 11 13 12 11 13 15 14 15 17 18 18 17 17 17 16 16 17 18 20 20 20 22 21 18 15 18 20 22 24 24 22 21 22 24 23 21 19 18 17 15 13 12 13 11 9 7 6 5 5 5 4 2 1 1 2 2 7
9 10 11 10 10 10 10 9 8 8 8 6 6 8 9 9 10 10 11 10 11 13 14 16 16 17 18 18 18 18 17 16 17 19 20 21 21 21 20 19 17 16 19 21 22 21 20 20 21 24 25 22 19 17 16 17 15 12 10 11 11 10 8 6 5 5 5 5 4 3 2 2 2 4
10 10 11 11 10 10 10 9 8 8 9 7 5 6 8 9 10 9 7 8 10 12 15 16 16 16 17 17 18 18 20 21 21 20 18 18 18 19 19 20 20 20 21 22 21 19 18 21 24 24 21 19 17 16 16 17 16 12 10 9 9 9 9 7 6 6 6 6 6 5 3 3 3 3
10 11 12 12 11 11 10 9 9 9 9 8 7 7 7 7 6 5 5 7 9 11 13 14 15 16 16 17 18 19 20 21 18 17 18 18 19 22 24 25 26 24 22 22 20 19 21 24 23 20 18 17 15 15 17 18 16 12 10 8 8 9 9 8 7 6 6 7 7 7 6 5 4 4
12 12 11 12 13 12 12 11 9 9 9 9 8 6 5 4 3 4 6 8 9 11 13 14 15 16 16 17 18 18 18 15 14 18 22 23 25 26 27 28 28 26 24 23 22 23 25 24 21 20 19 16 14 16 18 18 14 11 9 7 7 8 9 9 8 6 6 7 8 8 8 7 6 5
9 9 9 9 10 13 14 13 10 9 9 9 8 7 6 6 6 8 9 10 11 12 14 15 15 15 16 16 16 17 17 15 17 20 22 23 25 27 29 30 28 25 23 24 25 26 25 22 20 21 20 18 16 17 19 16 10 7 7 7 7 8 8 9 9 8 7 7 8 9 9 9 9 8
6 7 9 8 8 10 12 11 10 11 12 12 11 11 10 9 10 11 11 10 10 11 12 13 14 14 15 16 16 16 15 15 18 21 21 21 23 26 30 31 28 24 22 24 26 25 23 21 21 21 21 22 20 17 18 16 11 9 8 7 8 8 8 9 9 9 8 7 7 8 10 10 11 10
5 6 8 7 7 9 11 10 11 12 11 11 11 11 10 10 10 11 11 10 10 11 12 13 14 14 15 16 16 15 15 17 19 20 19 19 22 25 26 29 30 25 23 26 28 24 21 21 21 20 20 22 21 19 19 16 12 12 11 10 9 8 8 9 9 9 9 8 8 8 9 11 12 12
2 4 7 7 7 9 10 10 11 10 9 9 9 8 7 7 7 8 9 11 11 12 13 15 14 14 15 16 16 16 17 18 18 18 17 18 21 21 19 21 25 25 25 28 30 26 21 19 19 19 19 21 21 21 20 18 17 18 17 15 13 10 8 9 9 9 9 9 9 8 9 10 12 13
2 3 4 7 8 9 9 9 9 10 10 9 8 7 6 6 6 7 8 9 11 11 13 15 15 15 15 15 15 16 17 17 18 19 19 19 19 19 17 17 21 24 26 27 27 24 20 19 18 19 19 20 20 20 20 20 20 19 18 16 14 11 10 10 10 10 10 10 10 9 9 10 11 13
5 4 4 5 6 7 8 8 7 8 8 8 9 8 8 7 6 6 8 8 9 10 12 13 13 12 12 13 13 13 14 18 20 21 21 20 19 19 18 19 22 23 23 22 21 19 18 19 19 19 20 21 22 21 19 18 18 17 15 13 11 11 11 11 11 11 11 11 11 10 10 10 10 12
7 7 6 6 6 6 8 8 7 7 7 7 8 7 7 6 5 6 7 7 7 9 9 10 10 9 10 12 14 15 17 19 20 20 21 20 20 19 19 20 21 20 19 20 18 15 17 21 21 22 24 24 23 22 18 17 18 17 16 15 13 12 11 12 13 13 13 13 13 12 12 11 11 12
9 9 9 8 7 7 8 8 8 7 7 6 5 5 5 5 5 6 7 7 7 8 7 7 8 9 11 13 16 17 18 17 17 16 18 19 19 18 18 18 18 18 18 18 15 14 18 22 22 24 25 25 23 20 16 17 19 17 17 17 16 15 14 15 15 15 16 16 16 15 14 13 13 12
7 8 7 7 8 7 7 7 7 6 6 5 5 5 5 5 5 5 5 5 5 4 4 5 8 10 12 14 14 15 15 15 15 16 17 18 17 15 15 15 16 18 17 14 14 18 21 22 23 24 25 24 21 18 17 18 18 17 17 17 17 17 16 15 15 16 16 17 17 18 18 17 15 14
5 5 4 5 6 5 5 5 6 5 5 6 6 6 6 6 6 6 4 3 2 2 4 6 9 11 12 11 11 12 14 16 18 19 19 17 14 13 12 12 14 17 14 11 15 18 19 22 25 24 23 23 18 15 18 21 20 18 17 16 17 18 18 16 16 16 16 17 17 17 18 19 18 18
4 3 3 3 3 3 3 4 4 4 5 6 6 7 7 6 5 5 5 5 5 6 7 8 10 10 9 9 10 12 14 15 14 11 10 10 11 12 12 12 14 13 10 11 16 17 17 22 25 24 23 20 14 14 20 25 24 19 18 18 19 19 19 18 18 18 19 19 18 17 17 18 19 20
3 2 3 3 3 3 3 4 4 5 5 6 6 6 5 4 4 5 6 7 8 9 9 10 11 9 8 9 11 12 13 12 10 11 12 11 10 12 13 15 14 9 7 13 18 18 18 21 24 24 19 12 11 16 22 26 24 20 19 22 22 20 19 19 20 20 20 19 19 18 17 16 18 19
3 3 3 3 3 3 3 3 3 4 5 5 4 3 3 3 4 6 7 8 9 11 12 12 10 8 8 10 11 11 11 10 10 12 13 12 12 12 15 17 14 9 9 16 21 20 19 20 23 25 18 9 11 17 22 24 22 19 22 26 25 23 24 23 22 21 20 20 20 19 17 17 17 18
3 4 4 4 3 4 3 3 3 4 4 4 4 3 4 5 6 8 10 10 11 12 12 10 7 7 8 10 10 10 9 9 11 14 15 14 12 12 15 17 16 14 16 20 21 19 20 21 23 24 19 13 12 17 21 21 19 19 24 28 28 29 29 28 26 23 21 21 20 18 18 18 18 18
2 2 4 4 3 3 4 4 4 5 5 6 6 6 7 8 9 11 12 12 13 11 9 7 6 7 10 10 10 9 10 11 14 16 15 13 10 10 13 15 17 19 21 20 17 17 19 21 21 20 19 16 15 18 19 18 18 22 28 29 30 32 32 31 29 26 23 22 21 20 20 19 18 18
7 5 3 2 2 4 6 6 7 7 8 10 10 10 10 11 12 13 13 12 11 8 5 4 5 8 10 10 9 10 11 13 14 13 11 10 10 11 12 14 16 19 19 16 15 17 19 20 19 20 20 19 18 18 16 17 20 25 28 30 31 33 32 31 29 27 26 27 25 23 21 18 18 18
4 2 1 4 6 7 8 9 10 11 12 12 12 12 11 11 11 11 10 9 7 5 4 5 6 9 9 8 9 11 12 12 12 12 11 10 10 11 13 15 16 16 16 15 16 19 21 21 22 23 23 22 21 18 17 20 23 26 28 30 31 32 31 29 29 30 29 27 24 21 18 17 18 18
3 4 6 8 8 9 10 11 12 12 12 11 11 10 9 8 7 7 6 5 5 5 6 6 7 8 7 7 9 11 11 11 12 12 10 9 11 13 15 16 16 15 16 16 16 18 20 21 22 22 22 22 22 21 21 23 24 25 27 28 29 31 31 30 30 29 26 25 25 23 22 22 22 22
7 7 8 9 8 7 7 8 9 8 6 6 5 4 3 3 4 4 5 5 6 7 7 8 7 6 6 6 9 9 10 12 13 11 9 11 14 15 17 17 18 17 17 16 16 18 18 19 20 21 22 23 23 23 24 25 25 27 28 27 27 28 28 27 27 26 27 31 33 32 29 29 29 28
8 8 9 8 7 6 5 5 5 5 5 5 4 3 4 6 7 8 9 9 9 9 10 9 6 6 6 7 9 9 10 13 13 11 11 13 14 15 16 19 20 19 17 18 18 18 18 18 20 22 25 27 26 26 25 25 26 28 26 25 24 23 24 26 28 30 34 38 38 36 34 34 33 33
8 8 8 6 5 6 8 9 8 7 7 5 4 4 6 6 7 7 6 6 8 9 7 6 7 9 9 9 10 11 13 15 15 13 11 12 14 15 17 19 20 19 19 21 20 18 18 20 22 24 25 26 26 26 25 25 24 23 23 25 25 24 26 29 32 35 38 37 36 36 35 33 33 32
8 7 7 6 8 10 12 13 13 13 13 12 12 12 14 15 14 13 13 13 13 13 12 11 11 12 11 12 12 13 15 16 15 13 13 15 17 17 18 19 19 20 21 21 20 19 20 23 24 24 24 23 22 23 22 22 20 21 24 27 27 27 30 33 35 36 37 36 36 36 35 33 31 29
9 8 7 8 11 13 13 13 15 15 14 15 15 15 16 16 16 15 16 16 14 13 13 13 14 13 14 14 14 15 16 17 16 16 17 18 18 18 20 21 21 20 20 20 20 22 26 28 27 26 24 22 20 18 16 17 21 25 29 30 29 31 35 36 36 35 34 34 35 36 36 35 31 28
7 7 8 9 12 13 13 14 15 15 15 15 15 14 15 16 16 16 16 16 15 14 14 15 15 15 16 17 17 16 17 17 18 18 18 18 19 19 20 20 20 19 19 20 22 25 28 29 29 28 25 23 19 14 12 17 24 29 31 30 30 32 34 35 34 34 33 32 32 32 33 33 31 29
6 6 9 12 12 13 13 14 15 15 15 15 15 15 16 17 17 16 16 16 16 16 16 16 16 17 18 18 18 17 17 18 18 18 18 18 19 19 18 18 18 18 19 20 22 23 24 25 25 24 22 19 15 11 12 19 22 22 23 26 29 31 33 34 34 33 31 30 29 27 26 28 31 32
6 8 11 12 12 13 14 15 15 16 16 15 15 16 17 17 17 16 15 15 15 16 17 17 17 17 17 18 17 17 16 16 17 18 18 18 19 19 19 19 20 20 21 20 20 21 22 23 24 24 19 14 9 8 16 26 27 20 19 26 32 32 33 33 32 30 28 27 26 25 26 29 33 37
7 10 12 13 14 16 16 17 18 18 17 17 16 16 15 16 16 15 15 15 15 15 15 16 17 17 18 19 19 17 17 17 18 19 20 21 21 21 21 21 21 21 21 21 20 21 23 23 23 23 21 14 7 7 16 27 31 28 26 28 30 30 31 30 29 28 30 30 29 29 31 32 36 40
8 10 12 15 17 17 17 18 19 19 18 18 17 16 15 16 16 16 16 16 15 15 16 17 17 18 19 20 20 19 19 19 19 20 21 21 22 21 21 21 21 21 21 21 21 22 22 21 21 23 22 19 15 16 21 26 30 31 29 25 25 28 31 31 30 31 32 33 35 37 37 37 38 38
11 12 14 15 16 16 15 16 17 17 18 18 17 15 15 16 16 17 17 16 15 15 16 17 17 18 20 20 20 20 20 20 20 21 22 22 22 22 22 22 22 22 21 21 21 21 21 21 22 24 24 23 23 26 27 26 26 27 26 23 24 27 30 30 32 34 34 35 36 36 35 35 36 36
13 14 14 13 14 14 14 13 14 15 15 16 15 15 15 15 17 17 17 16 15 16 16 17 17 18 19 20 21 21 21 21 21 22 23 23 22 22 23 22 22 23 22 21 21 22 22 23 24 24 24 25 26 25 23 20 20 24 26 27 27 27 26 28 30 32 33 34 34 32 31 32 34 35
13 15 14 13 13 13 12 12 12 13 13 13 14 14 13 14 15 16 16 15 15 16 17 17 18 19 20 21 21 22 22 22 23 23 23 23 23 23 23 22 22 23 22 21 21 23 24 25 26 26 26 27 27 24 19 17 20 25 29 31 31 30 28 29 29 28 27 30 32 31 32 33 29 25
12 13 13 13 12 12 12 11 11 11 11 12 12 13 13 13 14 15 15 14 15 16 18 18 18 19 20 20 21 21 21 22 22 23 23 24 24 24 23 23 23 23 23 23 24 26 28 27 27 28 28 27 25 22 21 22 24 26 29 31 32 33 33 32 30 28 27 29 30 29 30 29 26 23
12 12 12 12 12 12 11 11 11 10 10 10 11 11 12 12 11 12 13 13 14 15 17 17 18 19 20 21 21 21 21 21 22 22 23 23 23 23 23 23 24 24 24 25 26 26 26 26 26 26 25 24 23 23 23 24 25 26 28 30 31 33 34 34 33 33 33 32 29 27 28 29 29 29
12 12 11 11 11 11 11 10 10 10 10 10 10 11 10 9 9 10 11 13 14 15 16 16 17 18 20 21 21 21 21 21 21 22 22 22 21 21 20 20 21 22 22 23 24 26 27 27 26 24 23 23 23 23 23 24 25 26 28 30 31 32 34 34 35 37 36 33 29 28 29 29 29 29
Wind_Direction
280 287 256 243 251 245 245 248 238 260 266 251 250 260 255 243 230 269 303 305 288 307 325 323 321 334 337 329 324 325 334 342 341 340 341 341 341 343 339 338 340 340 341 343 344 347 341 328 322 326 336 344 344 343 346 353 360 1 1 360 357 352 342 348 14 19 14 33 139 166 166 160 155 157
275 290 258 255 256 237 253 255 241 267 275 249 246 250 251 254 249 233 240 284 292 305 325 332 327 330 338 341 334 328 334 341 341 340 341 341 340 339 338 341 345 344 343 346 353 358 354 341 333 329 332 338 338 336 339 346 354 359 0 360 359 358 348 342 1 28 15 17 86 171 177 171 169 173
276 285 259 258 259 248 273 267 253 266 257 245 252 252 254 258 257 256 243 248 291 302 318 327 332 336 338 341 339 335 334 333 334 337 336 335 335 335 338 342 346 345 343 347 352 354 350 344 340 334 331 334 333 330 332 338 345 353 358 359 356 358 354 340 344 20 30 10 23 166 188 189 184 182
276 281 255 248 264 269 275 269 263 266 253 248 252 252 262 261 255 261 251 239 277 299 313 323 331 339 336 333 332 330 328 327 331 337 334 333 333 333 337 342 347 348 346 347 349 349 349 345 341 336 332 332 332 327 324 328 336 344 352 356 354 354 355 342 334 338 78 28 3 45 190 202 201 195
265 273 256 250 261 262 264 266 271 273 261 255 256 260 267 264 256 257 251 247 271 297 318 327 330 333 330 328 330 330 329 332 335 336 332 331 330 326 328 333 337 342 347 351 352 350 348 343 339 339 338 338 339 333 322 320 326 335 345 350 350 347 347 340 330 322 295 143 6 345 217 201 207 205
261 263 256 255 259 256 260 264 269 279 273 259 256 263 265 262 260 257 255 255 264 289 312 325 326 328 328 329 336 338 333 329 327 325 325 328 328 323 323 325 324 331 343 349 348 344 341 339 342 348 350 349 345 340 331 322 320 326 337 345 347 343 340 334 324 318 304 237 174 330 312 223 203 207
259 259 254 256 260 260 261 262 262 264 266 265 261 263 262 260 266 264 258 259 267 282 301 316 319 321 323 325 332 335 331 327 324 321 320 322 324 324 326 327 324 329 340 343 340 338 339 342 347 349 346 344 340 338 338 333 324 320 326 337 344 342 336 328 316 307 302 282 229 202 275 280 215 203
258 259 257 256 259 261 261 263 262 252 248 254 252 258 264 259 261 262 257 264 275 277 288 304 312 315 319 323 328 330 329 327 324 320 320 324 329 335 342 344 340 335 336 337 338 342 346 346 342 338 337 338 338 338 337 333 327 318 314 326 338 343 339 328 316 300 292 286 265 233 218 257 257 212
258 262 261 260 259 263 265 265 266 254 243 244 247 256 259 249 245 252 265 281 284 281 288 302 314 319 323 327 325 323 324 323 323 326 331 338 344 346 347 345 342 339 337 339 345 351 349 340 335 335 338 341 342 341 336 331 326 315 304 313 329 341 341 330 319 305 289 281 272 258 234 230 249 241
259 261 260 259 257 256 257 259 264 260 252 256 264 261 256 252 252 264 291 302 300 302 306 313 319 321 325 325 320 325 333 332 336 346 347 344 342 340 337 336 338 341 340 342 346 345 337 336 339 344 349 351 348 345 339 332 326 313 301 303 316 336 344 333 322 312 297 284 274 264 253 240 235 242
259 265 267 268 273 275 267 259 259 264 266 265 258 250 247 254 272 282 289 297 303 310 315 316 317 317 320 320 321 334 347 346 350 355 350 341 335 335 337 336 336 336 336 337 337 333 334 341 349 353 355 356 352 349 347 339 324 309 302 303 311 327 340 336 322 312 303 290 280 271 261 252 241 236
275 294 297 280 279 291 287 271 260 262 265 257 240 231 233 244 264 274 277 286 296 304 308 310 313 316 319 324 331 343 351 351 348 346 345 342 337 336 336 336 335 334 333 333 331 334 342 349 355 357 358 358 352 349 352 348 332 317 317 317 316 322 336 341 330 315 304 292 283 276 268 260 253 245
303 305 295 277 263 278 282 265 252 252 250 245 239 237 242 256 270 273 274 281 291 300 306 310 317 321 322 328 336 343 347 346 339 337 339 339 338 337 334 333 336 337 334 332 333 340 349 351 353 358 358 360 2 358 353 350 343 339 337 329 324 321 328 340 340 328 312 296 286 278 272 267 260 254
299 274 281 291 280 275 274 263 255 252 244 242 246 249 256 268 275 274 277 283 288 293 299 304 312 316 316 321 328 333 334 330 329 333 338 336 334 336 333 331 336 342 341 335 333 341 350 348 349 356 358 2 9 8 2 359 351 343 338 329 324 319 322 332 340 340 329 311 295 282 274 271 266 261
288 268 275 290 292 283 284 280 268 255 246 250 258 261 265 273 279 280 283 288 290 291 292 295 299 300 304 310 315 319 322 325 327 329 330 329 329 332 331 325 330 342 345 335 328 335 348 351 349 355 0 1 0 359 357 355 348 341 335 327 318 310 314 324 329 335 337 327 312 297 282 274 269 265
301 312 292 290 290 284 283 285 271 255 253 254 250 248 256 265 274 282 287 290 294 295 295 295 297 298 303 309 313 317 320 322 323 320 319 322 324 324 322 314 317 333 342 335 328 333 349 356 353 356 359 355 352 351 347 346 345 340 336 330 319 306 305 314 321 325 330 331 324 313 299 285 276 270
294 317 318 302 290 273 266 271 264 250 249 248 242 245 256 263 271 289 298 299 301 305 301 295 298 309 315 318 320 321 317 314 316 317 318 320 320 319 318 313 315 328 341 340 332 332 347 359 356 352 350 347 347 348 346 353 359 354 351 351 337 316 304 306 315 318 318 322 324 321 314 303 291 280
283 292 296 293 282 260 254 255 246 237 240 244 244 245 250 257 275 300 306 303 307 315 309 297 304 322 327 321 316 312 308 308 312 316 316 317 317 316 316 317 320 330 342 345 338 331 346 358 353 344 343 343 344 345 348 1 8 5 6 8 358 339 321 313 314 315 313 314 315 316 316 311 304 295
276 281 285 286 275 258 247 241 237 239 245 244 241 247 255 268 289 307 313 314 317 322 322 316 319 325 323 314 308 306 307 307 310 312 309 310 313 315 319 325 331 340 345 348 349 340 344 352 348 341 343 343 343 350 360 4 4 3 1 1 357 348 334 321 317 316 313 311 310 309 309 308 307 303
268 274 277 269 258 248 236 235 240 244 249 250 251 260 268 274 287 303 320 330 326 325 326 321 319 316 312 310 310 314 316 316 316 312 305 308 316 321 324 326 334 345 351 356 357 344 340 346 346 342 344 347 349 358 6 4 0 355 349 351 356 355 347 335 326 321 317 313 309 306 304 303 303 301
255 259 257 250 250 242 226 232 244 245 252 259 260 264 272 279 287 293 293 283 285 308 313 315 317 313 311 318 325 326 327 326 322 312 302 306 319 326 322 317 325 339 351 358 352 342 338 343 344 341 343 350 357 3 1 357 355 352 353 360 2 358 353 347 340 334 329 324 316 310 306 301 297 295
241 237 229 226 228 225 222 240 259 270 276 275 273 274 275 274 279 287 284 280 289 297 300 308 313 310 319 335 332 330 339 342 341 337 331 330 332 329 321 318 323 333 349 355 349 344 341 343 342 338 338 345 355 356 351 350 354 2 7 4 356 352 351 349 345 340 335 331 326 320 313 305 298 293
248 249 235 219 212 223 242 259 275 287 287 280 278 280 275 265 268 285 298 307 311 308 310 316 314 316 339 345 331 337 359 14 34 49 42 20 359 345 337 335 333 332 350 357 353 349 343 340 339 338 335 335 340 342 344 348 355 4 1 351 348 350 351 347 342 339 336 334 331 326 320 314 307 301
225 245 246 234 226 231 239 258 278 284 279 273 271 274 281 280 284 292 299 306 310 313 316 320 320 330 350 344 336 352 18 36 42 37 26 14 9 4 358 354 350 343 345 350 349 347 343 338 336 336 333 315 313 329 339 346 353 356 350 346 345 344 342 340 339 338 335 334 332 329 324 321 318 313
217 237 238 229 223 225 229 247 266 265 260 260 257 265 285 290 292 296 296 297 302 308 314 321 330 349 353 347 352 4 13 16 11 4 360 2 9 13 11 10 7 358 346 341 341 344 344 338 333 334 334 323 312 322 333 341 348 348 344 343 342 339 340 342 342 340 337 335 334 331 327 324 321 319
94 192 215 215 221 238 248 257 260 255 258 262 261 270 282 284 286 289 289 292 299 306 316 332 348 357 352 350 359 3 358 357 357 355 356 0 1 360 1 3 1 354 343 339 346 353 345 338 339 341 341 336 330 330 333 336 340 341 340 340 339 339 340 341 341 344 345 342 337 332 327 323 322 322
100 120 155 206 259 275 277 276 271 266 267 271 272 276 278 278 279 281 283 291 300 308 321 334 341 345 346 349 2 7 4 4 3 3 7 7 358 352 349 347 347 348 345 347 359 359 349 347 353 353 349 345 341 337 335 334 334 336 337 336 335 336 338 341 342 344 344 341 338 333 331 332 331 330
97 109 266 285 292 292 287 281 276 274 274 274 276 276 276 276 276 278 286 297 301 299 301 306 320 331 337 349 4 6 6 9 7 5 6 5 1 1 357 351 350 356 0 2 4 1 357 357 357 354 351 349 344 338 333 330 331 332 333 332 332 334 337 340 341 341 344 348 350 350 352 355 350 344
342 317 306 299 293 289 286 280 277 277 274 272 273 274 274 276 276 279 293 299 282 277 285 292 309 327 338 348 354 357 2 2 357 356 1 360 358 358 356 354 359 6 7 7 5 1 357 355 352 350 349 348 346 342 336 332 331 331 331 328 327 330 335 338 340 343 349 354 354 352 352 350 347 343
314 300 304 309 300 293 294 289 281 278 271 267 278 288 279 268 261 262 271 271 266 276 287 291 305 331 350 356 356 356 357 353 352 355 356 352 352 353 353 355 360 2 4 6 5 359 355 356 357 357 357 355 351 346 341 335 329 325 325 327 328 332 338 344 347 348 348 346 342 339 336 335 337 338
321 303 303 314 316 320 334 327 304 299 296 284 283 292 291 287 287 285 285 288 295 302 301 299 321 360 12 14 14 7 356 352 350 345 339 342 348 353 353 352 353 356 359 1 359 356 358 1 0 358 355 351 344 338 336 331 322 319 326 338 345 345 348 350 348 345 342 340 337 334 332 332 334 335
329 314 311 327 357 17 22 22 16 10 4 353 345 355 4 6 359 352 354 6 12 11 6 8 21 22 13 9 9 1 353 350 346 339 340 353 357 356 355 352 350 350 351 351 353 356 357 354 350 346 344 341 338 335 332 325 322 329 344 353 353 350 348 347 343 340 340 340 338 335 334 334 335 334
329 329 335 4 30 31 25 28 39 47 49 51 53 50 51 56 57 53 52 48 37 31 31 28 19 10 4 2 2 359 358 360 359 358 2 5 1 357 358 355 349 347 346 348 355 359 355 349 345 342 340 341 343 343 336 329 334 347 352 350 348 346 343 341 339 338 340 339 335 332 331 332 335 336
333 345 0 20 23 18 18 32 47 53 52 50 49 47 47 50 49 46 45 42 37 32 32 30 25 20 16 14 12 11 10 9 7 4 3 2 360 358 357 352 348 349 349 351 356 356 352 348 344 342 343 348 353 355 352 347 348 349 347 345 345 342 338 336 336 337 336 335 331 327 325 326 330 334
346 357 6 12 12 14 28 46 50 48 47 43 38 38 40 39 38 38 36 33 31 29 27 25 24 21 16 13 11 8 5 2 359 358 358 359 357 354 350 344 342 346 350 351 351 351 349 347 344 342 345 350 353 353 350 347 346 343 339 338 338 335 331 330 331 330 329 330 329 324 319 320 325 330
2 10 3 2 11 27 43 50 46 44 47 46 43 44 44 40 39 37 32 26 24 23 19 15 13 10 7 4 2 360 357 355 353 353 354 356 357 358 356 351 349 351 352 351 351 352 353 354 354 353 352 350 349 342 332 338 344 343 336 334 332 329 326 325 325 325 326 329 330 325 318 318 321 324
13 13 5 8 27 45 49 49 48 49 49 49 49 50 48 45 42 35 27 22 21 20 18 14 10 7 4 2 360 359 358 357 358 1 5 9 12 14 12 7 3 2 0 359 0 1 360 359 1 3 358 350 344 329 323 329 335 336 332 329 325 322 322 322 322 325 329 331 331 327 323 321 319 319
8 8 14 30 46 52 53 52 51 49 48 46 45 44 44 42 37 29 24 22 21 21 22 22 20 19 18 16 14 12 12 14 16 17 17 17 16 14 10 5 1 358 357 356 355 355 354 354 355 358 356 349 338 324 322 324 325 325 329 330 324 323 328 330 329 331 333 332 330 327 324 320 316 315
21 25 39 52 56 55 55 53 50 47 45 42 38 39 39 34 28 25 24 22 20 22 25 26 25 25 25 23 19 17 17 19 21 19 14 11 9 7 3 358 354 351 348 347 346 348 349 349 348 347 344 336 324 318 315 313 313 318 327 333 331 332 336 336 335 334 333 331 328 326 322 319 317 316
53 55 57 58 57 54 52 51 48 46 44 39 37 39 37 30 26 27 27 25 25 26 26 27 26 26 27 26 24 22 22 22 21 17 11 8 6 4 0 357 354 351 347 345 344 345 345 343 340 337 333 327 322 319 316 311 309 314 321 324 325 328 330 331 331 330 327 326 325 323 322 323 323 322
62 64 62 58 55 53 49 45 44 44 43 42 42 43 42 39 39 37 35 37 40 38 34 33 31 29 27 27 26 25 23 21 18 14 11 9 8 5 3 1 358 355 351 345 342 342 341 340 339 335 332 331 330 327 322 316 313 315 318 319 321 322 323 323 324 322 320 322 325 325 324 323 321 319
69 68 64 58 53 49 45 40 37 36 37 38 39 39 39 40 38 34 32 35 39 38 34 31 27 23 22 21 21 21 19 17 13 10 8 7 4 1 0 359 356 353 348 343 339 338 336 336 337 335 334 335 334 328 321 316 314 316 317 318 319 320 321 320 321 319 317 319 322 321 317 316 315 314
68 67 65 60 55 50 45 41 37 33 32 33 34 32 29 29 30 32 33 35 34 31 28 24 21 19 17 14 13 13 13 10 6 2 359 357 354 352 349 347 344 341 339 334 331 330 330 331 332 332 330 329 328 322 315 314 315 316 316 318 319 321 321 321 320 318 315 314 314 312 308 307 305 303
66 68 67 62 57 51 46 43 40 34 31 31 31 26 23 26 32 35 35 32 27 22 19 17 13 11 8 5 3 2 1 359 355 352 349 346 344 341 339 337 335 335 334 331 329 329 330 329 329 328 326 323 322 319 314 314 316 316 317 319 321 321 321 322 320 318 316 314 313 312 310 307 303 301
72 72 66 61 56 49 44 42 42 37 34 34 30 24 23 30 37 34 28 24 19 15 12 10 5 1 359 358 357 356 354 351 347 345 343 341 339 337 336 336 335 333 332 332 331 330 329 327 326 325 323 320 319 317 315 315 316 318 319 320 320 319 320 321 319 315 313 313 315 317 316 314 312 311